| time (UTC) | temp F | wind direction | speed MPH | gust MPH | rain 1hr in | rain 24hr in | rain mn in | humidity % | barometer mb |
| 20260904222752 | 85 | 299 | 1.0 | 6.0 | 0.00 | 0.04 | 0.04 | 45 | 1011.3 |
| 20260904222253 | 85 | 52 | 0.0 | 5.0 | 0.00 | 0.04 | 0.04 | 45 | 1011.4 |
| 20260904221752 | 85 | 176 | 0.0 | 5.0 | 0.00 | 0.04 | 0.04 | 44 | 1011.4 |
| 20260904221252 | 86 | 55 | 1.0 | 5.0 | 0.00 | 0.04 | 0.04 | 44 | 1011.4 |
| 20260904220752 | 86 | 223 | 3.0 | 5.0 | 0.00 | 0.04 | 0.04 | 44 | 1011.4 |
| 20260904220252 | 86 | 236 | 1.0 | 5.0 | 0.00 | 0.04 | 0.04 | 44 | 1011.4 |
| 20260904215752 | 87 | 238 | 0.0 | 0.0 | 0.00 | 0.04 | 0.04 | 41 | 1011.4 |
| 20260904215252 | 89 | 277 | 0.0 | 2.0 | 0.00 | 0.04 | 0.04 | 40 | 1011.4 |
| 20260904214252 | 90 | 20 | 0.0 | 6.0 | 0.00 | 0.04 | 0.04 | 40 | 1011.5 |
| 20260904213752 | 90 | 82 | 1.0 | 2.0 | 0.00 | 0.04 | 0.04 | 40 | 1011.5 |
| 20260904213252 | 90 | 303 | 0.0 | 2.0 | 0.00 | 0.04 | 0.04 | 40 | 1011.4 |
| 20260904212752 | 90 | 311 | 0.0 | 3.0 | 0.00 | 0.04 | 0.04 | 39 | 1011.5 |
| 20260904212252 | 90 | 315 | 0.0 | 5.0 | 0.04 | 0.04 | 0.04 | 38 | 1011.5 |
| 20260904211752 | 90 | 41 | 0.0 | 5.0 | 0.04 | 0.04 | 0.04 | 37 | 1011.6 |
| 20260904211252 | 90 | 9 | 0.0 | 2.0 | 0.04 | 0.04 | 0.04 | 36 | 1011.7 |
| 20260904210752 | 90 | 340 | 0.0 | 3.0 | 0.04 | 0.04 | 0.04 | 36 | 1011.6 |
| 20260904205752 | 91 | 57 | 0.0 | 4.0 | 0.04 | 0.04 | 0.04 | 34 | 1011.7 |
| 20260904205252 | 90 | 296 | 0.0 | 5.0 | 0.04 | 0.04 | 0.04 | 35 | 1011.7 |
| 20260904204752 | 90 | 267 | 2.0 | 5.0 | 0.04 | 0.04 | 0.04 | 34 | 1011.7 |
| 20260904204252 | 90 | 113 | 0.0 | 2.0 | 0.04 | 0.04 | 0.04 | 34 | 1011.8 |
| 20260904203753 | 90 | 344 | 0.0 | 0.0 | 0.04 | 0.04 | 0.04 | 35 | 1011.9 |
| 20260904203252 | 91 | 346 | 0.0 | 0.0 | 0.04 | 0.04 | 0.04 | 35 | 1011.9 |
| 20260904202752 | 91 | 15 | 0.0 | 0.0 | 0.04 | 0.04 | 0.04 | 33 | 1011.9 |
| 20260904201752 | 87 | 218 | 0.0 | 0.0 | 0.00 | 0.00 | 0.00 | 37 | 1011.9 |
| 20260904201252 | 87 | 218 | 0.0 | 0.0 | 0.00 | 0.00 | 0.00 | 36 | 1012.0 |
| 20260904200752 | 86 | 218 | 0.0 | 0.0 | 0.00 | 0.00 | 0.00 | 37 | 1012.0 |
| 20260904200252 | 87 | 218 | 0.0 | 0.0 | 0.00 | 0.00 | 0.00 | 36 | 1012.0 |
| 20260904195752 | 87 | 218 | 0.0 | 0.0 | 0.00 | 0.00 | 0.00 | 36 | 1012.0 |
| 20260904195252 | 86 | 218 | 0.0 | 0.0 | 0.00 | 0.00 | 0.00 | 36 | 1012.2 |
| 20260904194752 | 86 | 218 | 0.0 | 0.0 | 0.00 | 0.00 | 0.00 | 36 | 1012.2 |
| 20260904194252 | 86 | 218 | 0.0 | 0.0 | 0.00 | 0.00 | 0.00 | 35 | 1012.3 |
| 20260904192752 | 84 | 218 | 0.0 | 0.0 | 0.00 | 0.00 | 0.00 | 35 | 1012.4 |
| 20260904192252 | 83 | 218 | 0.0 | 0.0 | 0.00 | 0.00 | 0.00 | 35 | 1012.4 |
| 20260904191752 | 83 | 218 | 0.0 | 0.0 | 0.00 | 0.00 | 0.00 | 34 | 1012.5 |
| 20260904191252 | 83 | 218 | 0.0 | 0.0 | 0.00 | 0.00 | 0.00 | 33 | 1012.7 |
| 20260904190752 | 82 | 218 | 0.0 | 0.0 | 0.00 | 0.00 | 0.00 | 33 | 1012.8 |
| 20260904190252 | 82 | 218 | 0.0 | 0.0 | 0.00 | 0.00 | 0.00 | 32 | 1012.9 |
| 20260904185252 | 81 | 218 | 0.0 | 0.0 | 0.00 | 0.00 | 0.00 | 29 | 1012.9 |
| 20260904184751 | 81 | 218 | 0.0 | 0.0 | 0.00 | 0.00 | 0.00 | 28 | 1012.9 |
| 20260904184252 | 80 | 218 | 0.0 | 0.0 | 0.00 | 0.00 | 0.00 | 27 | 1013.0 |
| 20260904183751 | 80 | 218 | 0.0 | 0.0 | 0.00 | 0.00 | 0.00 | 26 | 1013.1 |
| 20260904183251 | 79 | 218 | 0.0 | 0.0 | 0.00 | 0.00 | 0.00 | 25 | 1013.1 |
| 20260904182752 | 79 | 218 | 0.0 | 0.0 | 0.00 | 0.00 | 0.00 | 24 | 1013.1 |
| 20260904182251 | 78 | 218 | 0.0 | 0.0 | 0.00 | 0.00 | 0.00 | 23 | 1013.1 |
| 20260904181752 | 77 | 218 | 0.0 | 0.0 | 0.00 | 0.00 | 0.00 | 23 | 1013.2 |
| 20260904181251 | 77 | 218 | 0.0 | 0.0 | 0.00 | 0.00 | 0.00 | 23 | 1013.3 |
| 20260904180751 | 77 | 218 | 0.0 | 0.0 | 0.00 | 0.00 | 0.00 | 22 | 1013.3 |
| 20260904180251 | 76 | 218 | 0.0 | 0.0 | 0.00 | 0.00 | 0.00 | 21 | 1013.3 |
| 20260904175752 | 75 | 218 | 0.0 | 0.0 | 0.00 | 0.00 | 0.00 | 21 | 1013.2 |
| 20260904175251 | 75 | 218 | 0.0 | 0.0 | 0.00 | 0.00 | 0.00 | 21 | 1013.2 |
| 20260904174752 | 74 | 218 | 0.0 | 0.0 | 0.00 | 0.00 | 0.00 | 21 | 1013.4 |
| 20260904174251 | 74 | 218 | 0.0 | 0.0 | 0.00 | 0.00 | 0.00 | 20 | 1013.5 |
| 20260904173251 | 73 | 218 | 0.0 | 0.0 | 0.00 | 0.00 | 0.00 | 19 | 1013.5 |
| 20260904172751 | 73 | 218 | 0.0 | 0.0 | 0.00 | 0.00 | 0.00 | 19 | 1013.4 |
| 20260904172251 | 72 | 218 | 0.0 | 0.0 | 0.00 | 0.00 | 0.00 | 18 | 1013.4 |
| 20260904171752 | 72 | 218 | 0.0 | 0.0 | 0.00 | 0.00 | 0.00 | 18 | 1013.3 |
| 20260904171252 | 72 | 218 | 0.0 | 0.0 | 0.00 | 0.00 | 0.00 | 17 | 1013.3 |
| 20260904170751 | 71 | 218 | 0.0 | 0.0 | 0.00 | 0.00 | 0.00 | 17 | 1013.3 |
| 20260904170251 | 71 | 218 | 0.0 | 0.0 | 0.00 | 0.00 | 0.00 | 16 | 1013.4 |
| 20260904165751 | 70 | 218 | 0.0 | 0.0 | 0.00 | 0.00 | 0.00 | 16 | 1013.4 |
| 20260904165251 | 70 | 218 | 0.0 | 0.0 | 0.00 | 0.00 | 0.00 | 15 | 1013.3 |
| 20260904164752 | 69 | 218 | 0.0 | 0.0 | 0.00 | 0.00 | 0.00 | 14 | 1013.4 |
| 20260904164251 | 69 | 218 | 0.0 | 0.0 | 0.00 | 0.00 | 0.00 | 14 | 1013.4 |
| 20260904163751 | 68 | 218 | 0.0 | 0.0 | 0.00 | 0.00 | 0.00 | 13 | 1013.3 |
| 20260904163251 | 68 | 218 | 0.0 | 0.0 | 0.00 | 0.00 | 0.00 | 12 | 1013.2 |
| 20260904162751 | 67 | 218 | 0.0 | 0.0 | 0.00 | 0.00 | 0.00 | 12 | 1013.2 |
| 20260904162251 | 67 | 218 | 0.0 | 0.0 | 0.00 | 0.00 | 0.00 | 11 | 1013.2 |
| 20260904161751 | 66 | 218 | 0.0 | 0.0 | 0.00 | 0.00 | 0.00 | 11 | 1013.2 |
| 20260904161251 | 66 | 218 | 0.0 | 0.0 | 0.00 | 0.00 | 0.00 | 10 | 1013.3 |
| 20260904160751 | 65 | 218 | 0.0 | 0.0 | 0.00 | 0.00 | 0.00 | 10 | 1013.3 |
| 20260904160251 | 65 | 218 | 0.0 | 0.0 | 0.00 | 0.00 | 0.00 | 9 | 1013.3 |
| 20260904155251 | 65 | 218 | 0.0 | 0.0 | 0.00 | 0.00 | 0.00 | 8 | 1013.3 |
| 20260904154750 | 64 | 218 | 0.0 | 0.0 | 0.00 | 0.00 | 0.00 | 8 | 1013.2 |
| 20260904154251 | 64 | 218 | 0.0 | 0.0 | 0.00 | 0.00 | 0.00 | 8 | 1013.2 |
| 20260904153750 | 64 | 218 | 0.0 | 0.0 | 0.00 | 0.00 | 0.00 | 7 | 1013.2 |
| 20260904153250 | 64 | 218 | 0.0 | 0.0 | 0.00 | 0.00 | 0.00 | 7 | 1013.2 |
| 20260904152750 | 64 | 218 | 0.0 | 0.0 | 0.00 | 0.00 | 0.00 | 7 | 1013.2 |
| 20260904151751 | 64 | 218 | 0.0 | 0.0 | 0.00 | 0.00 | 0.00 | 6 | 1013.2 |
| 20260904151250 | 63 | 218 | 0.0 | 0.0 | 0.00 | 0.00 | 0.00 | 6 | 1013.1 |
| 20260904150750 | 63 | 218 | 0.0 | 0.0 | 0.00 | 0.00 | 0.00 | 6 | 1013.0 |
| 20260904150250 | 63 | 218 | 0.0 | 0.0 | 0.00 | 0.00 | 0.00 | 5 | 1013.0 |
| 20260904145750 | 63 | 218 | 0.0 | 0.0 | 0.00 | 0.00 | 0.00 | 5 | 1013.0 |
| 20260904144750 | 63 | 218 | 0.0 | 0.0 | 0.00 | 0.00 | 0.00 | 5 | 1012.9 |
| 20260904144250 | 63 | 218 | 0.0 | 0.0 | 0.00 | 0.00 | 0.00 | 5 | 1012.8 |
| 20260904143750 | 63 | 218 | 0.0 | 0.0 | 0.00 | 0.00 | 0.00 | 5 | 1012.7 |
| 20260904143249 | 62 | 218 | 0.0 | 0.0 | 0.00 | 0.00 | 0.00 | 5 | 1012.7 |
| 20260904142750 | 62 | 218 | 0.0 | 0.0 | 0.00 | 0.00 | 0.00 | 5 | 1012.7 |
| 20260904142250 | 62 | 218 | 0.0 | 0.0 | 0.00 | 0.00 | 0.00 | 5 | 1012.7 |
| 20260904141750 | 62 | 218 | 0.0 | 0.0 | 0.00 | 0.00 | 0.00 | 5 | 1012.6 |
| 20260904141249 | 62 | 218 | 0.0 | 0.0 | 0.00 | 0.00 | 0.00 | 5 | 1012.6 |
| 20260904140749 | 62 | 218 | 0.0 | 0.0 | 0.00 | 0.00 | 0.00 | 5 | 1012.6 |
| 20260904140249 | 62 | 218 | 0.0 | 0.0 | 0.00 | 0.00 | 0.00 | 5 | 1012.5 |
| 20260904135750 | 61 | 218 | 0.0 | 0.0 | 0.00 | 0.00 | 0.00 | 5 | 1012.6 |
| 20260904135250 | 61 | 218 | 0.0 | 0.0 | 0.00 | 0.00 | 0.00 | 5 | 1012.5 |
| 20260904134750 | 61 | 218 | 0.0 | 0.0 | 0.00 | 0.00 | 0.00 | 5 | 1012.5 |
| 20260904134249 | 61 | 218 | 0.0 | 0.0 | 0.00 | 0.00 | 0.00 | 5 | 1012.5 |
| 20260904133749 | 61 | 218 | 0.0 | 0.0 | 0.00 | 0.00 | 0.00 | 5 | 1012.5 |
| 20260904133249 | 61 | 218 | 0.0 | 0.0 | 0.00 | 0.00 | 0.00 | 5 | 1012.5 |
| 20260904132749 | 61 | 218 | 0.0 | 0.0 | 0.00 | 0.00 | 0.00 | 5 | 1012.5 |
| 20260904132249 | 61 | 218 | 0.0 | 0.0 | 0.00 | 0.00 | 0.00 | 5 | 1012.4 |
| 20260904131749 | 61 | 218 | 0.0 | 0.0 | 0.00 | 0.00 | 0.00 | 5 | 1012.3 |
| 20260904131249 | 61 | 218 | 0.0 | 0.0 | 0.00 | 0.00 | 0.00 | 5 | 1012.3 |
| 20260904130749 | 61 | 218 | 0.0 | 0.0 | 0.00 | 0.00 | 0.00 | 5 | 1012.3 |
| 20260904130249 | 61 | 218 | 0.0 | 0.0 | 0.00 | 0.00 | 0.00 | 5 | 1012.3 |
| 20260904125749 | 61 | 218 | 0.0 | 0.0 | 0.00 | 0.00 | 0.00 | 5 | 1012.4 |
| 20260904124749 | 60 | 218 | 0.0 | 0.0 | 0.00 | 0.00 | 0.00 | 5 | 1012.3 |
| 20260904124248 | 60 | 218 | 0.0 | 0.0 | 0.00 | 0.00 | 0.00 | 5 | 1012.4 |
| 20260904123748 | 60 | 218 | 0.0 | 0.0 | 0.00 | 0.00 | 0.00 | 5 | 1012.2 |
| 20260904122749 | 60 | 218 | 0.0 | 0.0 | 0.00 | 0.00 | 0.00 | 6 | 1012.2 |
| 20260904122248 | 60 | 218 | 0.0 | 0.0 | 0.00 | 0.00 | 0.00 | 6 | 1012.2 |
| 20260904121248 | 60 | 218 | 0.0 | 0.0 | 0.00 | 0.00 | 0.00 | 6 | 1012.2 |
| 20260904120749 | 59 | 218 | 0.0 | 0.0 | 0.00 | 0.00 | 0.00 | 6 | 1012.2 |
| 20260904120248 | 59 | 218 | 0.0 | 0.0 | 0.00 | 0.00 | 0.00 | 6 | 1012.2 |
| 20260904115748 | 59 | 218 | 0.0 | 0.0 | 0.00 | 0.00 | 0.00 | 6 | 1012.4 |
| 20260904115249 | 59 | 218 | 0.0 | 0.0 | 0.00 | 0.00 | 0.00 | 6 | 1012.3 |
| 20260904114748 | 59 | 218 | 0.0 | 0.0 | 0.00 | 0.00 | 0.00 | 6 | 1012.4 |
| 20260904114248 | 59 | 218 | 0.0 | 0.0 | 0.00 | 0.00 | 0.00 | 6 | 1012.5 |
| 20260904113749 | 59 | 218 | 0.0 | 0.0 | 0.00 | 0.00 | 0.00 | 6 | 1012.3 |
| 20260904113248 | 58 | 218 | 0.0 | 0.0 | 0.00 | 0.00 | 0.00 | 6 | 1012.3 |
| 20260904112748 | 58 | 218 | 0.0 | 0.0 | 0.00 | 0.00 | 0.00 | 6 | 1012.3 |
| 20260904112248 | 58 | 218 | 0.0 | 0.0 | 0.00 | 0.00 | 0.00 | 6 | 1012.3 |
| 20260904111748 | 58 | 218 | 0.0 | 0.0 | 0.00 | 0.00 | 0.00 | 6 | 1012.3 |
| 20260904111249 | 58 | 218 | 0.0 | 0.0 | 0.00 | 0.00 | 0.00 | 6 | 1012.3 |
| 20260904110748 | 58 | 218 | 0.0 | 0.0 | 0.00 | 0.00 | 0.00 | 6 | 1012.3 |
| 20260904110248 | 58 | 218 | 0.0 | 0.0 | 0.00 | 0.00 | 0.00 | 6 | 1012.4 |
| 20260904105748 | 59 | 218 | 0.0 | 0.0 | 0.00 | 0.00 | 0.00 | 6 | 1012.4 |
| 20260904104748 | 59 | 218 | 0.0 | 0.0 | 0.00 | 0.00 | 0.00 | 6 | 1012.4 |
| 20260904104248 | 59 | 218 | 0.0 | 0.0 | 0.00 | 0.00 | 0.00 | 6 | 1012.3 |
| 20260904103748 | 59 | 218 | 0.0 | 0.0 | 0.00 | 0.00 | 0.00 | 6 | 1012.4 |
| 20260904103248 | 59 | 218 | 0.0 | 0.0 | 0.00 | 0.00 | 0.00 | 6 | 1012.4 |
| 20260904102748 | 60 | 218 | 0.0 | 0.0 | 0.00 | 0.00 | 0.00 | 6 | 1012.3 |
| 20260904101748 | 60 | 218 | 0.0 | 0.0 | 0.00 | 0.00 | 0.00 | 6 | 1012.3 |
| 20260904101248 | 60 | 218 | 0.0 | 0.0 | 0.00 | 0.00 | 0.00 | 6 | 1012.4 |
| 20260904100748 | 60 | 218 | 0.0 | 0.0 | 0.00 | 0.00 | 0.00 | 6 | 1012.3 |
| 20260904100248 | 61 | 218 | 0.0 | 0.0 | 0.00 | 0.00 | 0.00 | 6 | 1012.2 |
| 20260904095748 | 61 | 218 | 0.0 | 0.0 | 0.00 | 0.00 | 0.00 | 6 | 1012.3 |
| 20260904095247 | 61 | 218 | 0.0 | 0.0 | 0.00 | 0.00 | 0.00 | 6 | 1012.3 |
| 20260904093748 | 62 | 218 | 0.0 | 0.0 | 0.00 | 0.00 | 0.00 | 6 | 1012.3 |
| 20260904093248 | 62 | 218 | 0.0 | 0.0 | 0.00 | 0.00 | 0.00 | 6 | 1012.2 |
| 20260904092747 | 62 | 218 | 0.0 | 0.0 | 0.00 | 0.00 | 0.00 | 6 | 1012.3 |
| 20260904091747 | 62 | 218 | 0.0 | 0.0 | 0.00 | 0.00 | 0.00 | 6 | 1012.3 |
| 20260904091248 | 62 | 218 | 0.0 | 0.0 | 0.00 | 0.00 | 0.00 | 6 | 1012.3 |
| 20260904090747 | 62 | 218 | 0.0 | 0.0 | 0.00 | 0.00 | 0.00 | 7 | 1012.3 |
| 20260904090247 | 62 | 218 | 0.0 | 0.0 | 0.00 | 0.00 | 0.00 | 7 | 1012.3 |
| 20260904085747 | 62 | 218 | 0.0 | 0.0 | 0.00 | 0.00 | 0.00 | 7 | 1012.4 |
| 20260904085247 | 62 | 218 | 0.0 | 0.0 | 0.00 | 0.00 | 0.00 | 7 | 1012.4 |
| 20260904084747 | 62 | 218 | 0.0 | 0.0 | 0.00 | 0.00 | 0.00 | 7 | 1012.5 |
| 20260904084247 | 62 | 218 | 0.0 | 0.0 | 0.00 | 0.00 | 0.00 | 7 | 1012.5 |
| 20260904083247 | 62 | 218 | 0.0 | 0.0 | 0.00 | 0.00 | 0.00 | 8 | 1012.6 |
| 20260904082247 | 62 | 218 | 0.0 | 0.0 | 0.00 | 0.00 | 0.00 | 8 | 1012.6 |
| 20260904081747 | 62 | 218 | 0.0 | 0.0 | 0.00 | 0.00 | 0.00 | 8 | 1012.6 |
| 20260904080747 | 63 | 218 | 0.0 | 0.0 | 0.00 | 0.00 | 0.00 | 8 | 1012.5 |
| 20260904075747 | 63 | 218 | 0.0 | 0.0 | 0.00 | 0.00 | 0.00 | 8 | 1012.6 |
| 20260904075247 | 63 | 218 | 0.0 | 0.0 | 0.00 | 0.00 | 0.00 | 8 | 1012.6 |
| 20260904074747 | 64 | 218 | 0.0 | 0.0 | 0.00 | 0.00 | 0.00 | 8 | 1012.6 |
| 20260904074247 | 64 | 218 | 0.0 | 0.0 | 0.00 | 0.00 | 0.00 | 8 | 1012.5 |
| 20260904073746 | 64 | 218 | 0.0 | 0.0 | 0.00 | 0.00 | 0.00 | 7 | 1012.5 |
| 20260904073246 | 64 | 218 | 0.0 | 0.0 | 0.00 | 0.00 | 0.00 | 7 | 1012.5 |
| 20260904072747 | 64 | 218 | 0.0 | 0.0 | 0.00 | 0.00 | 0.00 | 7 | 1012.5 |
| 20260904072246 | 64 | 218 | 0.0 | 0.0 | 0.00 | 0.00 | 0.00 | 7 | 1012.5 |
| 20260904071747 | 64 | 218 | 0.0 | 0.0 | 0.00 | 0.00 | 0.00 | 7 | 1012.5 |
| 20260904071246 | 64 | 218 | 0.0 | 0.0 | 0.00 | 0.00 | 0.00 | 7 | 1012.5 |
| 20260904070747 | 64 | 218 | 0.0 | 0.0 | 0.00 | 0.00 | 0.00 | 7 | 1012.5 |
| 20260904070246 | 64 | 218 | 0.0 | 0.0 | 0.00 | 0.00 | 0.00 | 7 | 1012.5 |
| 20260904065747 | 64 | 218 | 0.0 | 0.0 | 0.00 | 0.00 | 0.00 | 7 | 1012.5 |
| 20260904065246 | 64 | 218 | 0.0 | 0.0 | 0.00 | 0.00 | 0.00 | 7 | 1012.5 |
| 20260904064746 | 64 | 218 | 0.0 | 0.0 | 0.00 | 0.00 | 0.00 | 7 | 1012.5 |
| 20260904064247 | 64 | 218 | 0.0 | 0.0 | 0.00 | 0.00 | 0.00 | 7 | 1012.6 |
| 20260904063747 | 64 | 218 | 0.0 | 0.0 | 0.00 | 0.00 | 0.00 | 7 | 1012.6 |
| 20260904063246 | 64 | 218 | 0.0 | 0.0 | 0.00 | 0.00 | 0.00 | 6 | 1012.5 |
| 20260904062746 | 64 | 218 | 0.0 | 0.0 | 0.00 | 0.00 | 0.00 | 6 | 1012.6 |
| 20260904062246 | 64 | 218 | 0.0 | 0.0 | 0.00 | 0.00 | 0.00 | 6 | 1012.6 |
| 20260904061746 | 64 | 218 | 0.0 | 0.0 | 0.00 | 0.00 | 0.00 | 6 | 1012.6 |
| 20260904060746 | 64 | 218 | 0.0 | 0.0 | 0.00 | 0.00 | 0.00 | 5 | 1012.5 |
| 20260904055746 | 63 | 218 | 0.0 | 0.0 | 0.00 | 0.00 | 0.00 | 5 | 1012.3 |
| 20260904055246 | 63 | 218 | 0.0 | 0.0 | 0.00 | 0.00 | 0.00 | 5 | 1012.3 |
| 20260904054745 | 63 | 218 | 0.0 | 0.0 | 0.00 | 0.00 | 0.00 | 5 | 1012.2 |
| 20260904054246 | 63 | 218 | 0.0 | 0.0 | 0.00 | 0.00 | 0.00 | 5 | 1012.3 |
| 20260904053746 | 63 | 218 | 0.0 | 0.0 | 0.00 | 0.00 | 0.00 | 6 | 1012.3 |
| 20260904052245 | 62 | 218 | 0.0 | 0.0 | 0.00 | 0.00 | 0.00 | 7 | 1012.5 |
| 20260904051747 | 62 | 218 | 0.0 | 0.0 | 0.00 | 0.00 | 0.00 | 8 | 1012.4 |
| 20260904050746 | 63 | 218 | 0.0 | 0.0 | 0.00 | 0.00 | 0.00 | 8 | 1012.6 |
| 20260904050245 | 63 | 218 | 0.0 | 0.0 | 0.00 | 0.00 | 0.00 | 8 | 1012.5 |
| 20260904045746 | 63 | 218 | 0.0 | 0.0 | 0.00 | 0.00 | 0.00 | 8 | 1012.4 |
| 20260904045246 | 63 | 218 | 0.0 | 0.0 | 0.00 | 0.00 | 0.00 | 8 | 1012.4 |
| 20260904044746 | 63 | 218 | 0.0 | 0.0 | 0.00 | 0.00 | 0.00 | 8 | 1012.4 |
| 20260904044245 | 63 | 218 | 0.0 | 0.0 | 0.00 | 0.00 | 0.00 | 8 | 1012.3 |
| 20260904043746 | 63 | 218 | 0.0 | 0.0 | 0.00 | 0.00 | 0.00 | 9 | 1012.3 |
| 20260904043245 | 63 | 218 | 0.0 | 0.0 | 0.00 | 0.00 | 0.00 | 9 | 1012.3 |
| 20260904042745 | 64 | 218 | 0.0 | 0.0 | 0.00 | 0.00 | 0.00 | 9 | 1012.2 |
| 20260904042245 | 64 | 218 | 0.0 | 0.0 | 0.00 | 0.00 | 0.00 | 9 | 1012.2 |
| 20260904041746 | 64 | 218 | 0.0 | 0.0 | 0.00 | 0.00 | 0.00 | 10 | 1012.2 |
| 20260904040745 | 64 | 218 | 0.0 | 0.0 | 0.00 | 0.00 | 0.00 | 11 | 1012.1 |
| 20260904035746 | 64 | 218 | 0.0 | 0.0 | 0.00 | 0.00 | 0.00 | 12 | 1012.1 |
| 20260904035246 | 64 | 218 | 0.0 | 0.0 | 0.00 | 0.00 | 0.00 | 12 | 1012.0 |
| 20260904034745 | 64 | 218 | 0.0 | 0.0 | 0.00 | 0.00 | 0.00 | 13 | 1011.8 |
| 20260904034245 | 64 | 218 | 0.0 | 0.0 | 0.00 | 0.00 | 0.00 | 14 | 1011.9 |
| 20260904033245 | 64 | 218 | 0.0 | 0.0 | 0.00 | 0.00 | 0.00 | 16 | 1011.8 |
| 20260904032245 | 65 | 218 | 0.0 | 0.0 | 0.00 | 0.00 | 0.00 | 19 | 1011.7 |
| 20260904031745 | 65 | 218 | 0.0 | 0.0 | 0.00 | 0.00 | 0.00 | 21 | 1011.6 |
| 20260904031245 | 65 | 218 | 0.0 | 0.0 | 0.00 | 0.00 | 0.00 | 22 | 1011.5 |
| 20260904025245 | 67 | 218 | 0.0 | 0.0 | 0.00 | 0.00 | 0.00 | 28 | 1011.3 |
| 20260904024745 | 67 | 218 | 0.0 | 0.0 | 0.00 | 0.00 | 0.00 | 30 | 1011.2 |
| 20260904024244 | 67 | 218 | 0.0 | 0.0 | 0.00 | 0.00 | 0.00 | 31 | 1011.2 |
| 20260904023745 | 68 | 218 | 0.0 | 0.0 | 0.00 | 0.00 | 0.00 | 32 | 1011.2 |
| 20260904023245 | 68 | 218 | 0.0 | 0.0 | 0.00 | 0.00 | 0.00 | 33 | 1011.2 |
| 20260904022744 | 68 | 218 | 0.0 | 0.0 | 0.00 | 0.00 | 0.00 | 34 | 1011.1 |
| 20260904022244 | 69 | 218 | 0.0 | 0.0 | 0.00 | 0.00 | 0.00 | 35 | 1011.2 |
| 20260904021745 | 69 | 218 | 0.0 | 0.0 | 0.00 | 0.00 | 0.00 | 36 | 1011.1 |
| 20260904021244 | 69 | 218 | 0.0 | 0.0 | 0.00 | 0.00 | 0.00 | 36 | 1011.2 |
| 20260904020745 | 70 | 218 | 0.0 | 0.0 | 0.00 | 0.00 | 0.00 | 37 | 1011.2 |
| 20260904020244 | 70 | 218 | 0.0 | 0.0 | 0.00 | 0.00 | 0.00 | 38 | 1011.2 |
| 20260904015744 | 71 | 218 | 0.0 | 0.0 | 0.00 | 0.00 | 0.00 | 38 | 1011.3 |
| 20260904015244 | 71 | 218 | 0.0 | 0.0 | 0.00 | 0.00 | 0.00 | 38 | 1011.2 |
| 20260904014744 | 72 | 218 | 0.0 | 0.0 | 0.00 | 0.00 | 0.00 | 39 | 1011.2 |
| 20260904014244 | 72 | 218 | 0.0 | 0.0 | 0.00 | 0.00 | 0.00 | 40 | 1011.2 |
| 20260904013744 | 73 | 218 | 0.0 | 0.0 | 0.00 | 0.00 | 0.00 | 41 | 1011.1 |
| 20260904013244 | 73 | 218 | 0.0 | 0.0 | 0.00 | 0.00 | 0.00 | 41 | 1011.2 |
| 20260904012744 | 73 | 218 | 0.0 | 0.0 | 0.00 | 0.00 | 0.00 | 41 | 1011.1 |
| 20260904012243 | 74 | 218 | 0.0 | 0.0 | 0.00 | 0.00 | 0.00 | 41 | 1011.0 |
| 20260904011243 | 74 | 218 | 0.0 | 0.0 | 0.00 | 0.00 | 0.00 | 42 | 1011.1 |
| 20260904010243 | 74 | 218 | 0.0 | 0.0 | 0.00 | 0.00 | 0.00 | 43 | 1011.0 |
| 20260904005743 | 75 | 218 | 0.0 | 0.0 | 0.00 | 0.00 | 0.00 | 43 | 1011.1 |
| 20260904005243 | 75 | 218 | 0.0 | 0.0 | 0.00 | 0.00 | 0.00 | 43 | 1011.0 |
| 20260904004743 | 76 | 218 | 0.0 | 0.0 | 0.00 | 0.00 | 0.00 | 43 | 1011.1 |
| 20260904004243 | 76 | 218 | 0.0 | 0.0 | 0.00 | 0.00 | 0.00 | 42 | 1011.1 |
| 20260904003243 | 79 | 218 | 0.0 | 0.0 | 0.00 | 0.00 | 0.00 | 41 | 1011.1 |
| 20260904002743 | 80 | 218 | 0.0 | 0.0 | 0.00 | 0.00 | 0.00 | 40 | 1011.1 |
| 20260904002243 | 80 | 218 | 0.0 | 0.0 | 0.00 | 0.00 | 0.00 | 40 | 1011.1 |
| 20260904000743 | 82 | 218 | 0.0 | 0.0 | 0.00 | 0.00 | 0.00 | 39 | 1011.1 |
| 20260903235743 | 82 | 218 | 0.0 | 0.0 | 0.00 | 0.00 | 0.00 | 39 | 1011.1 |
| 20260903235243 | 82 | 218 | 0.0 | 0.0 | 0.00 | 0.00 | 0.00 | 38 | 1011.1 |
| 20260903234743 | 82 | 218 | 0.0 | 0.0 | 0.00 | 0.00 | 0.00 | 38 | 1011.1 |
| 20260903234242 | 83 | 218 | 0.0 | 0.0 | 0.00 | 0.00 | 0.00 | 38 | 1011.1 |
| 20260903233742 | 82 | 218 | 0.0 | 0.0 | 0.00 | 0.00 | 0.00 | 38 | 1011.1 |
| 20260903232742 | 83 | 218 | 0.0 | 0.0 | 0.00 | 0.00 | 0.00 | 38 | 1011.2 |
| 20260903232242 | 83 | 218 | 0.0 | 0.0 | 0.00 | 0.00 | 0.00 | 37 | 1011.2 |
| 20260903231742 | 83 | 218 | 0.0 | 0.0 | 0.00 | 0.00 | 0.00 | 37 | 1011.2 |
| 20260903231242 | 84 | 218 | 0.0 | 0.0 | 0.00 | 0.00 | 0.00 | 37 | 1011.2 |
| 20260903230742 | 84 | 218 | 0.0 | 0.0 | 0.00 | 0.00 | 0.00 | 37 | 1011.3 |
| 20260903230243 | 84 | 218 | 0.0 | 0.0 | 0.00 | 0.00 | 0.00 | 37 | 1011.3 |
| 20260903225742 | 84 | 218 | 0.0 | 0.0 | 0.00 | 0.00 | 0.00 | 36 | 1011.5 |
| 20260903224242 | 84 | 218 | 0.0 | 0.0 | 0.00 | 0.00 | 0.00 | 36 | 1011.6 |
| 20260903223742 | 84 | 218 | 0.0 | 0.0 | 0.00 | 0.00 | 0.00 | 36 | 1011.6 |